Home   Weather   Frankfort   Past weeks

Flag for USA Past Weather in Frankfort, Kentucky, USA — Yesterday and Last 2 Weeks

Now
64 °F

Mostly cloudy.


Feels Like: 64 °F
Forecast: 53 / 68 °F
Wind: 7 mph from South

Location: Capital City Airport

Current Time: Sep 30, 2016 at 4:32:00 PM

Latest Report: Sep 30, 2016 at 3:53 PM


Visibility: 10 mi

Pressure: 29.99 "Hg

Humidity: 61%

Dew Point: 50 °F

Location of FrankfortLocation

Past Weather in Frankfort — Graph

°F

Frankfort Temperature Yesterday

Maximum temperature yesterday: 65 °F (at 1:53 PM)
Minimum temperature yesterday: 50 °F (at 4:53 AM)
Average temperature yesterday: 57 °F

High & Low Weather Summary for the Past Weeks

 TemperatureHumidityPressure
High91 °F (Sep 16, 3:53 PM)93% (Sep 30, 5:51 AM)30.17 "Hg (Sep 30, 5:51 AM)
Low49 °F (Sep 27, 7:53 AM)26% (Sep 21, 3:53 PM)29.80 "Hg (Sep 28, 11:53 AM)
Average71 °F70%30.03 "Hg
* Reported Sep 15 2:53 PM — Sep 30 2:53 PM, Frankfort, Weather by CustomWeather, © 2016

Note: Actual official high and low records may vary slightly from our data, if they occured in-between our weather recording intervals... More about our weather records

Advertising

Frankfort Weather History for the Previous 24 Hours

Scroll right to see more
 ConditionsComfort  
Time TempWeatherWind HumidityBarometerVisibility
2:53 PM
Fri, Sep 30
64 °FPartly sunny.8 mph65%30.00 "Hg10 mi
1:53 PM62 °FPartly sunny.7 mph70%30.03 "Hg10 mi
12:53 PM62 °FSunny.7 mph73%30.03 "Hg10 mi
11:53 AM60 °FBroken clouds.No wind72%30.03 "Hg10 mi
10:53 AM59 °FOvercast.5 mph78%30.04 "Hg10 mi
9:53 AM57 °FLow clouds.No wind87%30.03 "Hg8 mi
9:04 AM55 °FFog.5 mph90%30.03 "Hg6 mi
8:01 AM54 °FFog.3 mph93%30.02 "Hg4 mi
6:53 AM55 °FFog.No wind90%30.01 "Hg0 mi
6:02 AM54 °FFog.No wind93%30.02 "Hg1 mi
5:51 AM54 °FFog.No wind93%30.01 "Hg1 mi
4:53 AM56 °FFog.3 mph90%30.02 "Hg5 mi
3:53 AM56 °FFog.No wind90%30.01 "Hg5 mi
2:53 AM56 °FLow clouds.No wind90%30.02 "Hg7 mi
1:53 AM56 °FMostly cloudy.No wind90%30.03 "Hg8 mi
12:53 AM56 °FLight rain. Fog.3 mph90%30.05 "Hg4 mi
12:03 AM56 °FHeavy rain. Fog.No wind90%30.08 "Hg2 mi
11:53 PM
Thu, Sep 29
57 °FRain. Fog.No wind87%30.07 "Hg5 mi
10:53 PM57 °FLight rain. Mostly cloudy.No wind83%30.07 "Hg10 mi
9:53 PM57 °FPassing clouds.3 mph83%30.07 "Hg10 mi
8:53 PM57 °FMostly cloudy.3 mph83%30.08 "Hg10 mi
7:53 PM59 °FOvercast.3 mph75%30.07 "Hg10 mi
6:53 PM62 °FOvercast.No wind65%30.06 "Hg10 mi
5:53 PM65 °FPartly sunny.6 mph59%30.05 "Hg10 mi
4:53 PM64 °FSunny.No wind58%30.04 "Hg10 mi
Weather by CustomWeather, © 2016

See weather overviewHow to use our weather pages